Time,TemperatureF,DewpointF,PressureIn,WindDirection,WindDirectionDegrees,WindSpeedMPH,WindSpeedGustMPH,Humidity,HourlyPrecipIn,Conditions,Clouds,dailyrainin,SolarRadiationWatts/m^2,SoftwareType,DateUTC
2013-03-29 00:00:00,40.3,34.0,30.26,NNW,336,0.0,2.0,78,0.00,,,0.00,0.0,meteohub,2013-03-29 04:00:00,
2013-03-29 00:05:00,39.9,33.6,30.26,NNW,336,0.0,0.0,78,0.00,,,0.00,0.0,meteohub,2013-03-29 04:05:00,
2013-03-29 00:10:00,39.6,33.3,30.26,NNW,336,0.0,1.0,78,0.00,,,0.00,0.0,meteohub,2013-03-29 04:10:00,
2013-03-29 00:15:00,39.4,33.8,30.26,NNW,336,0.0,1.0,80,0.00,,,0.00,0.0,meteohub,2013-03-29 04:15:00,
2013-03-29 00:20:00,39.4,33.8,30.26,NNW,336,0.0,1.0,80,0.00,,,0.00,0.0,meteohub,2013-03-29 04:20:00,
2013-03-29 00:25:00,39.0,33.4,30.26,NNW,336,0.0,1.0,80,0.00,,,0.00,0.0,meteohub,2013-03-29 04:25:00,
2013-03-29 00:30:00,38.8,33.3,30.26,NNW,336,0.0,0.0,80,0.00,,,0.00,0.0,meteohub,2013-03-29 04:30:00,
2013-03-29 00:35:00,38.8,33.3,30.26,NNW,336,0.0,0.0,80,0.00,,,0.00,0.0,meteohub,2013-03-29 04:35:00,
2013-03-29 00:40:00,39.0,33.6,30.26,NNW,336,0.0,0.0,81,0.00,,,0.00,0.0,meteohub,2013-03-29 04:40:00,
2013-03-29 00:45:00,38.8,33.4,30.26,NNW,336,0.0,0.0,81,0.00,,,0.00,0.0,meteohub,2013-03-29 04:45:00,
2013-03-29 00:50:00,38.7,33.6,30.26,NNW,336,0.0,0.0,82,0.00,,,0.00,0.0,meteohub,2013-03-29 04:50:00,
2013-03-29 00:55:00,38.5,33.4,30.26,NNW,336,0.0,0.0,82,0.00,,,0.00,0.0,meteohub,2013-03-29 04:55:00,
2013-03-29 01:00:00,38.1,33.4,30.26,NNW,336,0.0,0.0,83,0.00,,,0.00,0.0,meteohub,2013-03-29 05:00:00,
2013-03-29 01:05:00,37.9,33.3,30.26,NNW,336,0.0,0.0,83,0.00,,,0.00,0.0,meteohub,2013-03-29 05:05:00,
2013-03-29 01:10:00,37.9,33.3,30.26,NNW,336,0.0,0.0,83,0.00,,,0.00,0.0,meteohub,2013-03-29 05:10:00,
2013-03-29 01:15:00,37.9,33.6,30.26,NNW,336,0.0,0.0,84,0.00,,,0.00,0.0,meteohub,2013-03-29 05:15:00,
2013-03-29 01:20:00,37.9,33.6,30.26,NNW,336,0.0,0.0,84,0.00,,,0.00,0.0,meteohub,2013-03-29 05:20:00,
2013-03-29 01:25:00,37.8,33.6,30.26,NNW,336,0.0,0.0,85,0.00,,,0.00,0.0,meteohub,2013-03-29 05:25:00,
2013-03-29 01:31:00,37.6,33.4,30.26,NNW,336,0.0,0.0,85,0.00,,,0.00,0.0,meteohub,2013-03-29 05:31:00,
2013-03-29 01:36:00,37.2,33.4,30.26,NNW,336,0.0,0.0,86,0.00,,,0.00,0.0,meteohub,2013-03-29 05:36:00,
2013-03-29 01:41:00,37.0,33.3,30.26,NNW,336,0.0,0.0,86,0.00,,,0.00,0.0,meteohub,2013-03-29 05:41:00,
2013-03-29 01:46:00,37.0,33.3,30.26,NNW,336,0.0,0.0,86,0.00,,,0.00,0.0,meteohub,2013-03-29 05:46:00,
2013-03-29 01:51:00,36.9,33.1,30.26,NNW,336,0.0,0.0,86,0.00,,,0.00,0.0,meteohub,2013-03-29 05:51:00,
2013-03-29 01:57:00,36.9,33.1,30.27,NNW,336,0.0,0.0,86,0.00,,,0.00,0.0,meteohub,2013-03-29 05:57:00,
2013-03-29 02:02:00,36.9,33.4,30.27,NNW,336,0.0,0.0,87,0.00,,,0.00,0.0,meteohub,2013-03-29 06:02:00,
2013-03-29 02:07:00,36.7,33.3,30.27,NNW,336,0.0,0.0,87,0.00,,,0.00,0.0,meteohub,2013-03-29 06:07:00,
2013-03-29 02:12:00,36.7,33.3,30.27,NNW,336,0.0,0.0,87,0.00,,,0.00,0.0,meteohub,2013-03-29 06:12:00,
2013-03-29 02:17:00,36.7,33.3,30.27,NNW,336,0.0,0.0,87,0.00,,,0.00,0.0,meteohub,2013-03-29 06:17:00,
2013-03-29 02:22:00,36.5,33.1,30.27,NNW,336,0.0,0.0,87,0.00,,,0.00,0.0,meteohub,2013-03-29 06:22:00,
2013-03-29 02:27:00,36.5,33.3,30.27,NNW,336,0.0,0.0,88,0.00,,,0.00,0.0,meteohub,2013-03-29 06:27:00,
2013-03-29 02:32:00,36.3,33.1,30.27,NNW,336,0.0,0.0,88,0.00,,,0.00,0.0,meteohub,2013-03-29 06:32:00,
2013-03-29 02:37:00,36.1,32.9,30.27,NNW,336,0.0,0.0,88,0.00,,,0.00,0.0,meteohub,2013-03-29 06:37:00,
2013-03-29 02:42:00,36.1,32.9,30.27,NNW,336,0.0,0.0,88,0.00,,,0.00,0.0,meteohub,2013-03-29 06:42:00,
2013-03-29 02:47:00,36.0,33.1,30.27,NNW,336,0.0,0.0,89,0.00,,,0.00,0.0,meteohub,2013-03-29 06:47:00,
2013-03-29 02:52:00,35.4,32.5,30.27,NNW,336,0.0,0.0,89,0.00,,,0.00,0.0,meteohub,2013-03-29 06:52:00,
2013-03-29 02:57:00,35.4,32.5,30.27,NNW,336,0.0,0.0,89,0.00,,,0.00,0.0,meteohub,2013-03-29 06:57:00,
2013-03-29 03:03:00,35.6,32.7,30.27,NNW,336,0.0,0.0,89,0.00,,,0.00,0.0,meteohub,2013-03-29 07:03:00,
2013-03-29 03:08:00,35.4,32.5,30.27,NNW,336,0.0,0.0,89,0.00,,,0.00,0.0,meteohub,2013-03-29 07:08:00,
2013-03-29 03:13:00,35.2,32.4,30.27,NNW,336,0.0,0.0,89,0.00,,,0.00,0.0,meteohub,2013-03-29 07:13:00,
2013-03-29 03:18:00,35.2,32.4,30.27,NNW,336,0.0,0.0,89,0.00,,,0.00,0.0,meteohub,2013-03-29 07:18:00,
2013-03-29 03:23:00,34.9,32.0,30.27,NNW,336,0.0,0.0,89,0.00,,,0.00,0.0,meteohub,2013-03-29 07:23:00,
2013-03-29 03:28:00,35.1,32.4,30.27,NNW,336,0.0,0.0,90,0.00,,,0.00,0.0,meteohub,2013-03-29 07:28:00,
2013-03-29 03:33:00,35.1,32.4,30.27,NNW,336,0.0,0.0,90,0.00,,,0.00,0.0,meteohub,2013-03-29 07:33:00,
2013-03-29 03:38:00,34.9,32.2,30.27,NNW,336,0.0,0.0,90,0.00,,,0.00,0.0,meteohub,2013-03-29 07:38:00,
2013-03-29 03:43:00,35.1,32.7,30.27,NNW,336,0.0,0.0,91,0.00,,,0.00,0.0,meteohub,2013-03-29 07:43:00,
2013-03-29 03:48:00,34.9,32.2,30.27,NNW,336,0.0,0.0,90,0.00,,,0.00,0.0,meteohub,2013-03-29 07:48:00,
2013-03-29 03:53:00,34.7,32.0,30.27,NNW,336,0.0,0.0,90,0.00,,,0.00,0.0,meteohub,2013-03-29 07:53:00,
2013-03-29 03:58:00,34.9,32.5,30.27,NNW,336,0.0,0.0,91,0.00,,,0.00,0.0,meteohub,2013-03-29 07:58:00,
2013-03-29 04:03:00,34.7,32.0,30.27,NNW,336,0.0,0.0,90,0.00,,,0.00,0.0,meteohub,2013-03-29 08:03:00,
2013-03-29 04:08:00,34.5,32.2,30.28,NNW,336,0.0,0.0,91,0.00,,,0.00,0.0,meteohub,2013-03-29 08:08:00,
2013-03-29 04:13:00,34.5,32.2,30.28,NNW,336,0.0,0.0,91,0.00,,,0.00,0.0,meteohub,2013-03-29 08:13:00,
2013-03-29 04:18:00,34.3,32.0,30.27,NNW,336,0.0,0.0,91,0.00,,,0.00,0.0,meteohub,2013-03-29 08:18:00,
2013-03-29 04:23:00,34.5,32.2,30.28,NNW,336,0.0,0.0,91,0.00,,,0.00,0.0,meteohub,2013-03-29 08:23:00,
2013-03-29 04:28:00,34.2,31.8,30.28,NNW,336,0.0,0.0,91,0.00,,,0.00,0.0,meteohub,2013-03-29 08:28:00,
2013-03-29 04:33:00,34.2,31.8,30.28,NNW,336,0.0,0.0,91,0.00,,,0.00,0.0,meteohub,2013-03-29 08:33:00,
2013-03-29 04:38:00,34.2,31.8,30.28,NNW,336,0.0,0.0,91,0.00,,,0.00,0.0,meteohub,2013-03-29 08:38:00,
2013-03-29 04:43:00,34.2,31.8,30.28,NNW,336,0.0,0.0,91,0.00,,,0.00,0.0,meteohub,2013-03-29 08:43:00,
2013-03-29 04:48:00,34.3,32.0,30.28,NNW,336,0.0,0.0,91,0.00,,,0.00,0.0,meteohub,2013-03-29 08:48:00,
2013-03-29 04:53:00,34.0,31.6,30.28,NNW,336,0.0,0.0,91,0.00,,,0.00,0.0,meteohub,2013-03-29 08:53:00,
2013-03-29 04:58:00,33.8,31.5,30.27,NNW,336,0.0,0.0,91,0.00,,,0.00,0.0,meteohub,2013-03-29 08:58:00,
2013-03-29 05:03:00,33.8,31.6,30.27,NNW,336,0.0,0.0,92,0.00,,,0.00,0.0,meteohub,2013-03-29 09:03:00,
2013-03-29 05:08:00,33.8,31.6,30.28,NNW,336,0.0,0.0,92,0.00,,,0.00,0.0,meteohub,2013-03-29 09:08:00,
2013-03-29 05:13:00,34.0,31.8,30.28,NNW,336,0.0,0.0,92,0.00,,,0.00,0.0,meteohub,2013-03-29 09:13:00,
2013-03-29 05:18:00,34.2,32.0,30.28,NNW,336,0.0,0.0,92,0.00,,,0.00,0.0,meteohub,2013-03-29 09:18:00,
2013-03-29 05:23:00,35.1,32.7,30.28,NNW,336,0.0,0.0,91,0.00,,,0.00,0.0,meteohub,2013-03-29 09:23:00,
2013-03-29 05:28:00,34.9,32.2,30.28,NNW,336,0.0,0.0,90,0.00,,,0.00,0.0,meteohub,2013-03-29 09:28:00,
2013-03-29 05:33:00,35.1,32.2,30.28,NNW,336,0.0,0.0,89,0.00,,,0.00,0.0,meteohub,2013-03-29 09:33:00,
2013-03-29 05:38:00,35.4,32.0,30.29,NNW,336,0.0,0.0,87,0.00,,,0.00,0.0,meteohub,2013-03-29 09:38:00,
2013-03-29 05:43:00,35.6,31.8,30.29,NNW,336,0.0,0.0,86,0.00,,,0.00,0.0,meteohub,2013-03-29 09:43:00,
2013-03-29 05:48:00,35.8,31.6,30.29,NNW,336,0.0,0.0,85,0.00,,,0.00,0.0,meteohub,2013-03-29 09:48:00,
2013-03-29 05:53:00,35.8,31.6,30.29,NNW,336,0.0,0.0,85,0.00,,,0.00,0.0,meteohub,2013-03-29 09:53:00,
2013-03-29 05:58:00,35.8,32.0,30.29,NNW,336,0.0,0.0,86,0.00,,,0.00,0.0,meteohub,2013-03-29 09:58:00,
2013-03-29 06:03:00,35.2,31.8,30.29,NNW,336,0.0,0.0,87,0.00,,,0.00,0.0,meteohub,2013-03-29 10:03:00,
2013-03-29 06:08:00,34.9,31.5,30.29,NNW,336,0.0,0.0,87,0.00,,,0.00,0.0,meteohub,2013-03-29 10:08:00,
2013-03-29 06:13:00,34.7,31.5,30.30,NNW,336,0.0,0.0,88,0.00,,,0.00,0.0,meteohub,2013-03-29 10:13:00,
2013-03-29 06:18:00,34.7,31.5,30.30,NNW,336,0.0,0.0,88,0.00,,,0.00,0.0,meteohub,2013-03-29 10:18:00,
2013-03-29 06:23:00,34.7,31.5,30.30,NNW,336,0.0,0.0,88,0.00,,,0.00,0.0,meteohub,2013-03-29 10:23:00,
2013-03-29 06:28:00,34.5,31.3,30.30,NNW,336,0.0,0.0,88,0.00,,,0.00,0.0,meteohub,2013-03-29 10:28:00,
2013-03-29 06:34:00,34.5,31.3,30.30,NNW,336,0.0,0.0,88,0.00,,,0.00,0.0,meteohub,2013-03-29 10:34:00,
2013-03-29 06:39:00,34.3,31.1,30.30,NNW,336,0.0,0.0,88,0.00,,,0.00,0.0,meteohub,2013-03-29 10:39:00,
2013-03-29 06:44:00,34.2,30.9,30.30,NNW,336,0.0,0.0,88,0.00,,,0.00,0.0,meteohub,2013-03-29 10:44:00,
2013-03-29 06:49:00,34.2,31.3,30.31,NNW,336,0.0,0.0,89,0.00,,,0.00,0.0,meteohub,2013-03-29 10:49:00,
2013-03-29 06:54:00,34.2,31.3,30.31,NNW,336,0.0,0.0,89,0.00,,,0.00,0.0,meteohub,2013-03-29 10:54:00,
2013-03-29 06:59:00,34.0,31.1,30.31,NNW,336,0.0,0.0,89,0.00,,,0.00,0.0,meteohub,2013-03-29 10:59:00,
2013-03-29 07:04:00,34.0,31.1,30.31,NNW,336,0.0,0.0,89,0.00,,,0.00,0.0,meteohub,2013-03-29 11:04:00,
2013-03-29 07:09:00,33.8,30.9,30.31,NNW,336,0.0,0.0,89,0.00,,,0.00,0.0,meteohub,2013-03-29 11:09:00,
2013-03-29 07:14:00,33.8,30.6,30.31,NNW,336,0.0,0.0,88,0.00,,,0.00,5.0,meteohub,2013-03-29 11:14:00,
2013-03-29 07:19:00,33.8,30.6,30.31,NNW,336,0.0,0.0,88,0.00,,,0.00,7.0,meteohub,2013-03-29 11:19:00,
2013-03-29 07:24:00,34.2,31.3,30.32,NNW,336,0.0,0.0,89,0.00,,,0.00,11.0,meteohub,2013-03-29 11:24:00,
2013-03-29 07:29:00,34.3,31.1,30.32,NNW,336,0.0,0.0,88,0.00,,,0.00,14.0,meteohub,2013-03-29 11:29:00,
2013-03-29 07:34:00,34.3,30.9,30.32,NNW,336,0.0,0.0,87,0.00,,,0.00,18.0,meteohub,2013-03-29 11:34:00,
2013-03-29 07:39:00,34.3,31.1,30.32,NNW,336,0.0,0.0,88,0.00,,,0.00,21.0,meteohub,2013-03-29 11:39:00,
2013-03-29 07:44:00,34.5,31.3,30.32,NNW,336,0.0,0.0,88,0.00,,,0.00,26.0,meteohub,2013-03-29 11:44:00,
2013-03-29 07:49:00,35.2,31.8,30.32,NNW,336,0.0,0.0,87,0.00,,,0.00,30.0,meteohub,2013-03-29 11:49:00,
2013-03-29 07:54:00,35.8,31.6,30.32,NNW,336,0.0,0.0,85,0.00,,,0.00,33.0,meteohub,2013-03-29 11:54:00,
2013-03-29 07:59:00,36.3,32.0,30.32,NNW,336,0.0,0.0,84,0.00,,,0.00,39.0,meteohub,2013-03-29 11:59:00,
2013-03-29 08:04:00,36.9,31.8,30.32,NNW,336,0.0,0.0,82,0.00,,,0.00,42.0,meteohub,2013-03-29 12:04:00,
2013-03-29 08:09:00,37.9,32.4,30.32,NNW,336,0.0,1.0,80,0.00,,,0.00,44.0,meteohub,2013-03-29 12:09:00,
2013-03-29 08:14:00,38.8,32.5,30.32,NNW,336,0.0,1.0,78,0.00,,,0.00,47.0,meteohub,2013-03-29 12:14:00,
2013-03-29 08:19:00,39.6,32.5,30.32,NNW,336,0.0,1.0,76,0.00,,,0.00,49.0,meteohub,2013-03-29 12:19:00,
2013-03-29 08:24:00,40.3,33.1,30.32,NNW,336,0.0,1.0,75,0.00,,,0.00,51.0,meteohub,2013-03-29 12:24:00,
2013-03-29 08:29:00,40.8,32.9,30.32,NNW,336,0.0,1.0,73,0.00,,,0.00,54.0,meteohub,2013-03-29 12:29:00,
2013-03-29 08:34:00,41.5,33.3,30.33,NNW,336,0.0,1.0,72,0.00,,,0.00,204.0,meteohub,2013-03-29 12:34:00,
2013-03-29 08:39:00,42.3,33.3,30.33,North,355,0.0,1.0,70,0.00,,,0.00,243.0,meteohub,2013-03-29 12:39:00,
2013-03-29 08:44:00,43.2,33.6,30.32,NNE,25,0.0,3.0,69,0.00,,,0.00,234.0,meteohub,2013-03-29 12:44:00,
2013-03-29 08:49:00,44.1,34.5,30.33,NE,36,0.0,3.0,69,0.00,,,0.00,288.0,meteohub,2013-03-29 12:49:00,
2013-03-29 08:54:00,44.8,34.9,30.33,NE,34,0.0,3.0,68,0.00,,,0.00,311.0,meteohub,2013-03-29 12:54:00,
2013-03-29 08:59:00,45.5,35.6,30.33,North,355,0.0,2.0,68,0.00,,,0.00,302.0,meteohub,2013-03-29 12:59:00,
2013-03-29 09:04:00,46.6,36.1,30.33,NNE,15,2.0,2.0,67,0.00,,,0.00,353.0,meteohub,2013-03-29 13:04:00,
2013-03-29 09:09:00,47.3,36.1,30.33,North,0,0.0,4.0,65,0.00,,,0.00,374.0,meteohub,2013-03-29 13:09:00,
2013-03-29 09:14:00,47.8,35.8,30.33,East,86,0.0,4.0,63,0.00,,,0.00,394.0,meteohub,2013-03-29 13:14:00,
2013-03-29 09:19:00,48.7,36.7,30.33,East,99,1.0,4.0,63,0.00,,,0.00,413.0,meteohub,2013-03-29 13:19:00,
2013-03-29 09:24:00,49.6,36.7,30.33,ENE,65,1.0,5.0,61,0.00,,,0.00,431.0,meteohub,2013-03-29 13:24:00,
2013-03-29 09:29:00,50.5,37.6,30.33,East,82,0.0,5.0,61,0.00,,,0.00,454.0,meteohub,2013-03-29 13:29:00,
2013-03-29 09:34:00,51.4,37.6,30.34,East,86,2.0,5.0,59,0.00,,,0.00,469.0,meteohub,2013-03-29 13:34:00,
2013-03-29 09:39:00,52.2,38.3,30.34,East,99,0.0,3.0,59,0.00,,,0.00,487.0,meteohub,2013-03-29 13:39:00,
2013-03-29 09:44:00,53.1,37.8,30.34,ESE,122,0.0,8.0,56,0.00,,,0.00,506.0,meteohub,2013-03-29 13:44:00,
2013-03-29 09:50:00,53.6,37.8,30.34,SSE,162,2.0,8.0,55,0.00,,,0.00,526.0,meteohub,2013-03-29 13:50:00,
2013-03-29 09:55:00,53.8,36.1,30.34,ENE,59,3.0,8.0,51,0.00,,,0.00,543.0,meteohub,2013-03-29 13:55:00,
2013-03-29 10:00:00,53.8,36.5,30.34,ENE,77,2.0,5.0,52,0.00,,,0.00,561.0,meteohub,2013-03-29 14:00:00,
2013-03-29 10:05:00,54.3,36.1,30.33,SE,138,1.0,9.0,50,0.00,,,0.00,578.0,meteohub,2013-03-29 14:05:00,
2013-03-29 10:10:00,54.7,35.4,30.33,ENE,75,3.0,9.0,48,0.00,,,0.00,596.0,meteohub,2013-03-29 14:10:00,
2013-03-29 10:15:00,55.2,36.0,30.33,East,101,7.0,9.0,48,0.00,,,0.00,613.0,meteohub,2013-03-29 14:15:00,
2013-03-29 10:20:00,55.9,34.9,30.33,NNE,28,3.0,7.0,45,0.00,,,0.00,629.0,meteohub,2013-03-29 14:20:00,
2013-03-29 10:25:00,57.0,35.2,30.33,ENE,57,2.0,7.0,44,0.00,,,0.00,647.0,meteohub,2013-03-29 14:25:00,
2013-03-29 10:30:00,56.8,35.2,30.33,East,83,5.0,7.0,44,0.00,,,0.00,656.0,meteohub,2013-03-29 14:30:00,
2013-03-29 10:35:00,56.8,33.4,30.33,NNE,26,1.0,6.0,41,0.00,,,0.00,673.0,meteohub,2013-03-29 14:35:00,
2013-03-29 10:40:00,56.8,32.7,30.33,NNE,23,1.0,7.0,40,0.00,,,0.00,687.0,meteohub,2013-03-29 14:40:00,
2013-03-29 10:45:00,57.2,33.1,30.33,East,82,2.0,7.0,40,0.00,,,0.00,701.0,meteohub,2013-03-29 14:45:00,
2013-03-29 10:50:00,57.9,34.9,30.33,ESE,115,3.0,7.0,42,0.00,,,0.00,715.0,meteohub,2013-03-29 14:50:00,
2013-03-29 10:55:00,59.0,34.7,30.33,SE,130,0.0,5.0,40,0.00,,,0.00,731.0,meteohub,2013-03-29 14:55:00,
2013-03-29 11:00:00,59.0,33.4,30.33,SE,136,1.0,4.0,38,0.00,,,0.00,742.0,meteohub,2013-03-29 15:00:00,
2013-03-29 11:05:00,59.2,34.2,30.32,SE,136,0.0,4.0,39,0.00,,,0.00,759.0,meteohub,2013-03-29 15:05:00,
2013-03-29 11:10:00,60.3,35.8,30.32,East,97,1.0,6.0,40,0.00,,,0.00,768.0,meteohub,2013-03-29 15:10:00,
2013-03-29 11:15:00,60.4,34.0,30.32,ENE,73,3.0,6.0,37,0.00,,,0.00,784.0,meteohub,2013-03-29 15:15:00,
2013-03-29 11:20:00,60.1,32.4,30.33,NNE,32,1.0,5.0,35,0.00,,,0.00,795.0,meteohub,2013-03-29 15:20:00,
2013-03-29 11:25:00,59.7,32.7,30.32,WNW,302,2.0,5.0,36,0.00,,,0.00,803.0,meteohub,2013-03-29 15:25:00,
2013-03-29 11:30:00,59.4,32.4,30.32,WNW,286,0.0,5.0,36,0.00,,,0.00,810.0,meteohub,2013-03-29 15:30:00,
2013-03-29 11:35:00,60.1,34.3,30.32,East,92,2.0,5.0,38,0.00,,,0.00,826.0,meteohub,2013-03-29 15:35:00,
2013-03-29 11:40:00,60.6,34.9,30.32,NNW,327,3.0,5.0,38,0.00,,,0.00,837.0,meteohub,2013-03-29 15:40:00,
2013-03-29 11:45:00,61.3,32.0,30.32,West,261,3.0,5.0,33,0.00,,,0.00,849.0,meteohub,2013-03-29 15:45:00,
2013-03-29 11:50:00,60.1,30.9,30.32,West,261,3.0,5.0,33,0.00,,,0.00,851.0,meteohub,2013-03-29 15:50:00,
2013-03-29 11:55:00,60.1,30.9,30.32,West,269,1.0,5.0,33,0.00,,,0.00,860.0,meteohub,2013-03-29 15:55:00,
2013-03-29 12:00:00,61.2,32.5,30.31,NE,55,0.0,5.0,34,0.00,,,0.00,867.0,meteohub,2013-03-29 16:00:00,
2013-03-29 12:05:00,62.2,33.4,30.31,ENE,71,3.0,4.0,34,0.00,,,0.00,874.0,meteohub,2013-03-29 16:05:00,
2013-03-29 12:10:00,62.2,32.0,30.31,NW,309,4.0,4.0,32,0.00,,,0.00,881.0,meteohub,2013-03-29 16:10:00,
2013-03-29 12:15:00,62.2,29.7,30.31,East,96,3.0,4.0,29,0.00,,,0.00,888.0,meteohub,2013-03-29 16:15:00,
2013-03-29 12:20:00,62.2,29.7,30.31,NE,39,1.0,4.0,29,0.00,,,0.00,898.0,meteohub,2013-03-29 16:20:00,
2013-03-29 12:25:00,62.4,30.6,30.30,ENE,73,1.0,4.0,30,0.00,,,0.00,905.0,meteohub,2013-03-29 16:25:00,
2013-03-29 12:30:00,62.8,30.0,30.30,SW,221,1.0,5.0,29,0.00,,,0.00,912.0,meteohub,2013-03-29 16:30:00,
2013-03-29 12:35:00,63.1,30.4,30.30,West,259,3.0,5.0,29,0.00,,,0.00,919.0,meteohub,2013-03-29 16:35:00,
2013-03-29 12:40:00,62.6,29.8,30.30,WNW,302,2.0,5.0,29,0.00,,,0.00,923.0,meteohub,2013-03-29 16:40:00,
2013-03-29 12:45:00,62.8,30.0,30.30,East,93,3.0,5.0,29,0.00,,,0.00,926.0,meteohub,2013-03-29 16:45:00,
2013-03-29 12:50:00,63.0,30.2,30.30,SSW,198,5.0,5.0,29,0.00,,,0.00,930.0,meteohub,2013-03-29 16:50:00,
2013-03-29 12:55:00,63.0,29.3,30.30,WSW,239,2.0,7.0,28,0.00,,,0.00,933.0,meteohub,2013-03-29 16:55:00,
2013-03-29 13:00:00,64.0,31.1,30.29,SE,132,1.0,7.0,29,0.00,,,0.00,932.0,meteohub,2013-03-29 17:00:00,
2013-03-29 13:05:00,63.9,29.3,30.29,West,263,2.0,7.0,27,0.00,,,0.00,940.0,meteohub,2013-03-29 17:05:00,
2013-03-29 13:10:00,63.3,29.7,30.29,NW,314,2.0,5.0,28,0.00,,,0.00,940.0,meteohub,2013-03-29 17:10:00,
2013-03-29 13:15:00,63.1,30.4,30.29,West,271,0.0,5.0,29,0.00,,,0.00,940.0,meteohub,2013-03-29 17:15:00,
2013-03-29 13:20:00,64.0,31.1,30.28,ESE,113,0.0,7.0,29,0.00,,,0.00,937.0,meteohub,2013-03-29 17:20:00,
2013-03-29 13:25:00,64.0,30.2,30.28,WNW,283,4.0,7.0,28,0.00,,,0.00,937.0,meteohub,2013-03-29 17:25:00,
2013-03-29 13:30:00,64.0,31.1,30.28,West,265,1.0,7.0,29,0.00,,,0.00,942.0,meteohub,2013-03-29 17:30:00,
2013-03-29 13:36:00,63.9,30.2,30.27,NNW,345,2.0,6.0,28,0.00,,,0.00,940.0,meteohub,2013-03-29 17:36:00,
2013-03-29 13:41:00,63.9,30.2,30.27,WNW,289,3.0,6.0,28,0.00,,,0.00,944.0,meteohub,2013-03-29 17:41:00,
2013-03-29 13:45:00,64.0,29.3,30.27,West,279,1.0,5.0,27,0.00,,,0.00,935.0,meteohub,2013-03-29 17:45:00,
2013-03-29 13:50:00,64.8,30.0,30.27,SW,217,5.0,5.0,27,0.00,,,0.00,932.0,meteohub,2013-03-29 17:50:00,
2013-03-29 13:56:00,65.1,31.3,30.26,South,186,3.0,5.0,28,0.00,,,0.00,930.0,meteohub,2013-03-29 17:56:00,
2013-03-29 14:01:00,64.9,29.3,30.26,WNW,292,5.0,6.0,26,0.00,,,0.00,928.0,meteohub,2013-03-29 18:01:00,
2013-03-29 14:06:00,65.5,28.8,30.26,WSW,239,3.0,6.0,25,0.00,,,0.00,921.0,meteohub,2013-03-29 18:06:00,
2013-03-29 14:11:00,65.5,30.6,30.26,SSW,194,1.0,6.0,27,0.00,,,0.00,916.0,meteohub,2013-03-29 18:11:00,
2013-03-29 14:16:00,65.5,28.8,30.25,East,98,2.0,6.0,25,0.00,,,0.00,912.0,meteohub,2013-03-29 18:16:00,
2013-03-29 14:21:00,65.1,28.4,30.25,South,185,2.0,6.0,25,0.00,,,0.00,905.0,meteohub,2013-03-29 18:21:00,
2013-03-29 14:26:00,65.7,30.7,30.25,WNW,290,2.0,6.0,27,0.00,,,0.00,902.0,meteohub,2013-03-29 18:26:00,
2013-03-29 14:31:00,65.5,31.5,30.25,WSW,254,2.0,7.0,28,0.00,,,0.00,893.0,meteohub,2013-03-29 18:31:00,
2013-03-29 14:36:00,65.7,28.9,30.25,NNW,340,2.0,7.0,25,0.00,,,0.00,882.0,meteohub,2013-03-29 18:36:00,
2013-03-29 14:41:00,65.3,26.6,30.24,SSE,166,2.0,7.0,23,0.00,,,0.00,844.0,meteohub,2013-03-29 18:41:00,
2013-03-29 14:46:00,65.7,28.9,30.24,WNW,286,2.0,9.0,25,0.00,,,0.00,568.0,meteohub,2013-03-29 18:46:00,
2013-03-29 14:51:00,65.7,28.9,30.23,NW,317,1.0,9.0,25,0.00,,,0.00,675.0,meteohub,2013-03-29 18:51:00,
2013-03-29 14:57:00,66.6,29.7,30.24,WSW,248,0.0,9.0,25,0.00,,,0.00,738.0,meteohub,2013-03-29 18:57:00,
2013-03-29 15:02:00,66.7,28.8,30.23,WSW,248,1.0,6.0,24,0.00,,,0.00,631.0,meteohub,2013-03-29 19:02:00,
2013-03-29 15:07:00,66.6,29.7,30.23,WSW,246,0.0,6.0,25,0.00,,,0.00,357.0,meteohub,2013-03-29 19:07:00,
2013-03-29 15:12:00,66.0,28.2,30.23,West,265,6.0,7.0,24,0.00,,,0.00,455.0,meteohub,2013-03-29 19:12:00,
2013-03-29 15:17:00,65.1,28.4,30.22,West,261,1.0,7.0,25,0.00,,,0.00,448.0,meteohub,2013-03-29 19:17:00,
2013-03-29 15:22:00,64.9,27.3,30.22,ESE,107,1.0,7.0,24,0.00,,,0.00,612.0,meteohub,2013-03-29 19:22:00,
2013-03-29 15:27:00,65.3,29.5,30.22,ESE,123,3.0,6.0,26,0.00,,,0.00,635.0,meteohub,2013-03-29 19:27:00,
2013-03-29 15:32:00,65.1,27.5,30.22,WNW,297,5.0,5.0,24,0.00,,,0.00,329.0,meteohub,2013-03-29 19:32:00,
2013-03-29 15:37:00,65.7,27.9,30.21,WSW,251,3.0,6.0,24,0.00,,,0.00,276.0,meteohub,2013-03-29 19:37:00,
2013-03-29 15:42:00,65.8,28.9,30.21,WNW,302,2.0,7.0,25,0.00,,,0.00,564.0,meteohub,2013-03-29 19:42:00,
2013-03-29 15:47:00,65.8,28.0,30.21,NW,311,3.0,8.0,24,0.00,,,0.00,464.0,meteohub,2013-03-29 19:47:00,
2013-03-29 15:52:00,66.0,28.2,30.21,NNE,30,2.0,8.0,24,0.00,,,0.00,371.0,meteohub,2013-03-29 19:52:00,
2013-03-29 15:57:00,65.5,29.7,30.20,East,80,1.0,7.0,26,0.00,,,0.00,306.0,meteohub,2013-03-29 19:57:00,
2013-03-29 16:02:00,66.4,27.5,30.20,WNW,292,2.0,5.0,23,0.00,,,0.00,313.0,meteohub,2013-03-29 20:02:00,
2013-03-29 16:07:00,66.6,27.7,30.20,NNW,333,1.0,5.0,23,0.00,,,0.00,399.0,meteohub,2013-03-29 20:07:00,
2013-03-29 16:12:00,66.6,27.7,30.20,West,278,7.0,10.0,23,0.00,,,0.00,276.0,meteohub,2013-03-29 20:12:00,
2013-03-29 16:17:00,65.8,28.0,30.20,WSW,247,2.0,10.0,24,0.00,,,0.00,125.0,meteohub,2013-03-29 20:17:00,
2013-03-29 16:22:00,65.8,27.0,30.20,WNW,288,3.0,8.0,23,0.00,,,0.00,104.0,meteohub,2013-03-29 20:22:00,
2013-03-29 16:27:00,65.7,27.9,30.19,SSW,192,1.0,8.0,24,0.00,,,0.00,200.0,meteohub,2013-03-29 20:27:00,
2013-03-29 16:33:00,65.7,26.8,30.19,WSW,254,1.0,6.0,23,0.00,,,0.00,190.0,meteohub,2013-03-29 20:33:00,
2013-03-29 16:38:00,65.7,27.9,30.19,ESE,119,2.0,6.0,24,0.00,,,0.00,251.0,meteohub,2013-03-29 20:38:00,
2013-03-29 16:43:00,65.7,26.8,30.19,West,265,1.0,4.0,23,0.00,,,0.00,163.0,meteohub,2013-03-29 20:43:00,
2013-03-29 16:48:00,65.7,27.9,30.19,WSW,254,3.0,4.0,24,0.00,,,0.00,214.0,meteohub,2013-03-29 20:48:00,
2013-03-29 16:53:00,65.7,27.9,30.19,West,273,2.0,4.0,24,0.00,,,0.00,176.0,meteohub,2013-03-29 20:53:00,
2013-03-29 16:58:00,65.5,27.7,30.19,ENE,69,3.0,5.0,24,0.00,,,0.00,128.0,meteohub,2013-03-29 20:58:00,
2013-03-29 17:03:00,65.8,28.9,30.19,WSW,243,4.0,5.0,25,0.00,,,0.00,77.0,meteohub,2013-03-29 21:03:00,
2013-03-29 17:08:00,65.7,27.9,30.19,West,277,0.0,7.0,24,0.00,,,0.00,62.0,meteohub,2013-03-29 21:08:00,
2013-03-29 17:13:00,65.5,27.7,30.19,West,261,0.0,7.0,24,0.00,,,0.00,62.0,meteohub,2013-03-29 21:13:00,
2013-03-29 17:18:00,64.9,27.3,30.19,SSW,201,2.0,7.0,24,0.00,,,0.00,60.0,meteohub,2013-03-29 21:18:00,
2013-03-29 17:23:00,64.6,27.0,30.19,South,179,0.0,5.0,24,0.00,,,0.00,84.0,meteohub,2013-03-29 21:23:00,
2013-03-29 17:28:00,64.9,28.2,30.19,ESE,117,1.0,5.0,25,0.00,,,0.00,56.0,meteohub,2013-03-29 21:28:00,
2013-03-29 17:33:00,65.1,27.5,30.19,SSE,158,1.0,4.0,24,0.00,,,0.00,63.0,meteohub,2013-03-29 21:33:00,
2013-03-29 17:38:00,64.6,34.9,30.19,ENE,69,2.0,4.0,33,0.00,,,0.00,77.0,meteohub,2013-03-29 21:38:00,
2013-03-29 17:43:00,64.2,38.1,30.19,East,93,3.0,7.0,38,0.00,,,0.00,98.0,meteohub,2013-03-29 21:43:00,
2013-03-29 17:48:00,63.7,36.9,30.19,ESE,113,2.0,7.0,37,0.00,,,0.00,54.0,meteohub,2013-03-29 21:48:00,
2013-03-29 17:53:00,63.1,37.8,30.19,NNE,13,1.0,7.0,39,0.00,,,0.00,123.0,meteohub,2013-03-29 21:53:00,
2013-03-29 17:58:00,63.1,37.8,30.19,South,179,1.0,8.0,39,0.00,,,0.00,139.0,meteohub,2013-03-29 21:58:00,
2013-03-29 18:03:00,63.3,37.2,30.18,South,173,2.0,8.0,38,0.00,,,0.00,49.0,meteohub,2013-03-29 22:03:00,
2013-03-29 18:08:00,63.1,37.0,30.18,ESE,120,3.0,8.0,38,0.00,,,0.00,49.0,meteohub,2013-03-29 22:08:00,
2013-03-29 18:13:00,63.1,37.8,30.18,North,9,0.0,6.0,39,0.00,,,0.00,49.0,meteohub,2013-03-29 22:13:00,
2013-03-29 18:18:00,62.8,36.9,30.19,East,96,1.0,6.0,38,0.00,,,0.00,174.0,meteohub,2013-03-29 22:18:00,
2013-03-29 18:23:00,62.2,37.0,30.19,East,84,3.0,6.0,39,0.00,,,0.00,39.0,meteohub,2013-03-29 22:23:00,
2013-03-29 18:28:00,61.5,37.0,30.19,East,96,3.0,6.0,40,0.00,,,0.00,37.0,meteohub,2013-03-29 22:28:00,
2013-03-29 18:33:00,61.0,37.0,30.19,ESE,105,2.0,7.0,41,0.00,,,0.00,33.0,meteohub,2013-03-29 22:33:00,
2013-03-29 18:38:00,60.6,36.9,30.19,SSE,153,6.0,7.0,41,0.00,,,0.00,47.0,meteohub,2013-03-29 22:38:00,
2013-03-29 18:43:00,60.4,36.7,30.19,ESE,121,1.0,7.0,41,0.00,,,0.00,40.0,meteohub,2013-03-29 22:43:00,
2013-03-29 18:48:00,60.4,37.2,30.19,ESE,103,1.0,6.0,42,0.00,,,0.00,28.0,meteohub,2013-03-29 22:48:00,
2013-03-29 18:53:00,60.1,36.9,30.19,ESE,107,1.0,6.0,42,0.00,,,0.00,28.0,meteohub,2013-03-29 22:53:00,
2013-03-29 18:58:00,59.9,36.7,30.19,East,98,3.0,5.0,42,0.00,,,0.00,35.0,meteohub,2013-03-29 22:58:00,
2013-03-29 19:03:00,59.7,37.2,30.20,East,88,2.0,5.0,43,0.00,,,0.00,35.0,meteohub,2013-03-29 23:03:00,
2013-03-29 19:08:00,59.5,37.0,30.20,ESE,119,0.0,5.0,43,0.00,,,0.00,28.0,meteohub,2013-03-29 23:08:00,
2013-03-29 19:14:00,59.5,37.0,30.20,South,176,1.0,5.0,43,0.00,,,0.00,14.0,meteohub,2013-03-29 23:14:00,
2013-03-29 19:19:00,59.0,36.0,30.20,ESE,117,0.0,5.0,42,0.00,,,0.00,12.0,meteohub,2013-03-29 23:19:00,
2013-03-29 19:24:00,58.5,36.0,30.20,SSE,150,2.0,5.0,43,0.00,,,0.00,9.0,meteohub,2013-03-29 23:24:00,
2013-03-29 19:29:00,58.3,36.0,30.20,ESE,107,0.0,4.0,43,0.00,,,0.00,7.0,meteohub,2013-03-29 23:29:00,
2013-03-29 19:34:00,57.9,36.1,30.20,ESE,109,0.0,4.0,44,0.00,,,0.00,5.0,meteohub,2013-03-29 23:34:00,
2013-03-29 19:39:00,57.6,35.8,30.21,ESE,109,0.0,5.0,44,0.00,,,0.00,0.0,meteohub,2013-03-29 23:39:00,
2013-03-29 19:44:00,57.0,36.0,30.21,East,89,1.0,5.0,45,0.00,,,0.00,0.0,meteohub,2013-03-29 23:44:00,
2013-03-29 19:49:00,56.8,35.8,30.21,ESE,119,0.0,5.0,45,0.00,,,0.00,0.0,meteohub,2013-03-29 23:49:00,
2013-03-29 19:54:00,56.5,36.0,30.21,ESE,119,1.0,3.0,46,0.00,,,0.00,0.0,meteohub,2013-03-29 23:54:00,
2013-03-29 19:59:00,56.1,36.1,30.21,ESE,119,0.0,3.0,47,0.00,,,0.00,0.0,meteohub,2013-03-29 23:59:00,
2013-03-29 20:04:00,55.8,36.3,30.22,ESE,119,0.0,2.0,48,0.00,,,0.00,0.0,meteohub,2013-03-30 00:04:00,
2013-03-29 20:09:00,55.4,36.5,30.22,ENE,72,0.0,2.0,49,0.00,,,0.00,0.0,meteohub,2013-03-30 00:09:00,
2013-03-29 20:14:00,55.2,36.3,30.22,ESE,109,2.0,4.0,49,0.00,,,0.00,0.0,meteohub,2013-03-30 00:14:00,
2013-03-29 20:19:00,55.0,36.1,30.22,ESE,109,0.0,4.0,49,0.00,,,0.00,0.0,meteohub,2013-03-30 00:19:00,
2013-03-29 20:24:00,55.0,36.1,30.22,ESE,109,0.0,4.0,49,0.00,,,0.00,0.0,meteohub,2013-03-30 00:24:00,
2013-03-29 20:29:00,54.9,37.0,30.22,ESE,103,0.0,3.0,51,0.00,,,0.00,0.0,meteohub,2013-03-30 00:29:00,
2013-03-29 20:34:00,54.5,36.7,30.22,ESE,103,0.0,2.0,51,0.00,,,0.00,0.0,meteohub,2013-03-30 00:34:00,
2013-03-29 20:39:00,54.1,36.9,30.22,ESE,103,0.0,2.0,52,0.00,,,0.00,0.0,meteohub,2013-03-30 00:39:00,
2013-03-29 20:44:00,53.8,37.0,30.22,ESE,103,0.0,2.0,53,0.00,,,0.00,0.0,meteohub,2013-03-30 00:44:00,
2013-03-29 20:49:00,53.4,37.6,30.22,SE,126,1.0,2.0,55,0.00,,,0.00,0.0,meteohub,2013-03-30 00:49:00,
2013-03-29 20:54:00,53.4,37.6,30.22,ESE,103,0.0,3.0,55,0.00,,,0.00,0.0,meteohub,2013-03-30 00:54:00,
2013-03-29 20:59:00,53.4,38.1,30.22,ESE,114,0.0,4.0,56,0.00,,,0.00,0.0,meteohub,2013-03-30 00:59:00,
2013-03-29 21:04:00,53.1,38.3,30.23,ESE,114,0.0,4.0,57,0.00,,,0.00,0.0,meteohub,2013-03-30 01:04:00,
2013-03-29 21:09:00,52.9,38.1,30.23,ESE,114,0.0,3.0,57,0.00,,,0.00,0.0,meteohub,2013-03-30 01:09:00,
2013-03-29 21:14:00,52.3,37.9,30.23,ESE,114,0.0,3.0,58,0.00,,,0.00,0.0,meteohub,2013-03-30 01:14:00,
2013-03-29 21:19:00,52.0,38.1,30.23,ESE,114,0.0,2.0,59,0.00,,,0.00,0.0,meteohub,2013-03-30 01:19:00,
2013-03-29 21:24:00,51.6,38.1,30.23,ESE,114,0.0,2.0,60,0.00,,,0.00,0.0,meteohub,2013-03-30 01:24:00,
2013-03-29 21:29:00,51.3,38.3,30.23,ESE,114,0.0,0.0,61,0.00,,,0.00,0.0,meteohub,2013-03-30 01:29:00,
2013-03-29 21:34:00,51.1,38.5,30.23,ESE,114,0.0,1.0,62,0.00,,,0.00,0.0,meteohub,2013-03-30 01:34:00,
2013-03-29 21:39:00,50.7,38.7,30.23,ESE,114,0.0,1.0,63,0.00,,,0.00,0.0,meteohub,2013-03-30 01:39:00,
2013-03-29 21:44:00,50.5,38.5,30.23,ESE,114,0.0,1.0,63,0.00,,,0.00,0.0,meteohub,2013-03-30 01:44:00,
2013-03-29 21:50:00,50.4,38.7,30.23,ESE,114,0.0,0.0,64,0.00,,,0.00,0.0,meteohub,2013-03-30 01:50:00,
2013-03-29 21:55:00,50.5,38.8,30.23,ESE,114,0.0,0.0,64,0.00,,,0.00,0.0,meteohub,2013-03-30 01:55:00,
2013-03-29 22:00:00,50.5,39.2,30.24,ESE,114,0.0,0.0,65,0.00,,,0.00,0.0,meteohub,2013-03-30 02:00:00,
2013-03-29 22:05:00,50.5,39.6,30.24,ESE,114,0.0,0.0,66,0.00,,,0.00,0.0,meteohub,2013-03-30 02:05:00,
2013-03-29 22:10:00,50.5,39.6,30.24,ESE,114,0.0,0.0,66,0.00,,,0.00,0.0,meteohub,2013-03-30 02:10:00,
2013-03-29 22:15:00,50.4,39.4,30.24,ESE,113,0.0,0.0,66,0.00,,,0.00,0.0,meteohub,2013-03-30 02:15:00,
2013-03-29 22:20:00,50.4,39.4,30.23,ESE,114,0.0,0.0,66,0.00,,,0.00,0.0,meteohub,2013-03-30 02:20:00,
2013-03-29 22:25:00,50.2,39.6,30.24,ESE,114,0.0,0.0,67,0.00,,,0.00,0.0,meteohub,2013-03-30 02:25:00,
2013-03-29 22:30:00,50.2,40.1,30.23,ESE,114,0.0,0.0,68,0.00,,,0.00,0.0,meteohub,2013-03-30 02:30:00,
2013-03-29 22:35:00,50.4,40.3,30.23,ESE,114,0.0,0.0,68,0.00,,,0.00,0.0,meteohub,2013-03-30 02:35:00,
2013-03-29 22:40:00,50.4,40.3,30.24,ESE,114,0.0,0.0,68,0.00,,,0.00,0.0,meteohub,2013-03-30 02:40:00,
2013-03-29 22:45:00,50.4,40.3,30.24,ESE,113,0.0,0.0,68,0.00,,,0.00,0.0,meteohub,2013-03-30 02:45:00,
2013-03-29 22:50:00,50.4,40.6,30.24,ESE,114,0.0,0.0,69,0.00,,,0.00,0.0,meteohub,2013-03-30 02:50:00,
2013-03-29 22:55:00,50.4,40.6,30.24,ESE,114,0.0,0.0,69,0.00,,,0.00,0.0,meteohub,2013-03-30 02:55:00,
2013-03-29 23:00:00,50.0,40.3,30.24,ESE,114,0.0,0.0,69,0.00,,,0.00,0.0,meteohub,2013-03-30 03:00:00,
2013-03-29 23:05:00,49.6,40.3,30.24,ESE,114,0.0,0.0,70,0.00,,,0.00,0.0,meteohub,2013-03-30 03:05:00,
2013-03-29 23:10:00,49.5,40.5,30.24,ESE,114,0.0,0.0,71,0.00,,,0.00,0.0,meteohub,2013-03-30 03:10:00,
2013-03-29 23:15:00,49.3,40.6,30.24,ESE,114,0.0,0.0,72,0.00,,,0.00,0.0,meteohub,2013-03-30 03:15:00,
2013-03-29 23:20:00,48.9,40.6,30.24,ESE,114,0.0,0.0,73,0.00,,,0.00,0.0,meteohub,2013-03-30 03:20:00,
2013-03-29 23:25:00,49.1,40.8,30.24,ESE,114,0.0,0.0,73,0.00,,,0.00,0.0,meteohub,2013-03-30 03:25:00,
2013-03-29 23:30:00,49.1,40.8,30.24,ESE,114,0.0,0.0,73,0.00,,,0.00,0.0,meteohub,2013-03-30 03:30:00,
2013-03-29 23:35:00,49.3,41.0,30.24,ESE,114,0.0,0.0,73,0.00,,,0.00,0.0,meteohub,2013-03-30 03:35:00,
2013-03-29 23:40:00,49.3,41.4,30.24,ESE,113,0.0,0.0,74,0.00,,,0.00,0.0,meteohub,2013-03-30 03:40:00,
2013-03-29 23:45:00,49.3,41.4,30.23,ESE,114,0.0,0.0,74,0.00,,,0.00,0.0,meteohub,2013-03-30 03:45:00,
2013-03-29 23:50:00,49.3,41.7,30.23,ESE,114,0.0,0.0,75,0.00,,,0.00,0.0,meteohub,2013-03-30 03:50:00,
2013-03-29 23:55:00,49.5,41.9,30.23,ESE,114,0.0,0.0,75,0.00,,,0.00,0.0,meteohub,2013-03-30 03:55:00,